GFSSW_850_thetae_276.txt.gz
Theta_e
301 301 300 300 300 300 300 300 301 300 300 300 301 305 305 309 310 311 311 310 310 310 309 310 310 310 311 310 311 312 315 311 309 309 309 310 309 308 308 308 308 308 308 309 310
301 300 300 300 300 300 300 300 300 300 300 300 302 306 306 306 310 311 310 310 310 310 310 310 310 310 310 310 309 311 312 309 309 309 309 309 309 309 309 309 309 309 310 310 310
300 300 300 300 300 300 300 300 300 300 300 300 304 307 307 307 311 310 310 310 310 310 309 309 310 311 310 309 308 309 310 309 310 309 308 309 310 309 309 309 310 310 310 311 312
300 300 300 300 300 300 300 300 300 300 300 301 304 306 307 309 316 309 310 310 310 310 311 311 311 310 309 309 308 309 310 310 310 310 310 309 309 310 309 310 310 310 310 309 309
300 300 300 300 300 300 299 300 300 300 300 301 305 306 309 311 308 309 310 311 310 310 310 311 311 310 309 309 310 309 309 310 309 310 310 309 310 310 311 310 310 309 307 305 305
300 300 300 299 299 299 300 300 300 300 300 302 306 307 309 312 308 309 310 310 310 310 309 309 309 309 309 309 309 309 310 309 310 311 311 310 311 312 310 311 310 308 305 305 306
300 300 299 299 299 299 300 300 300 300 301 306 306 307 309 308 308 308 309 310 310 309 309 308 310 311 310 310 309 308 310 309 311 312 311 311 314 311 311 310 308 307 306 305 307
300 299 299 299 299 299 300 300 300 300 302 305 306 306 307 306 307 308 308 309 309 310 309 308 309 309 309 309 308 311 312 316 311 311 311 312 314 311 310 309 308 308 307 305 306
300 299 299 299 299 300 300 300 300 301 303 304 306 310 308 306 307 308 309 309 309 309 310 309 311 310 311 315 316 316 315 313 314 311 312 312 312 311 310 309 308 307 306 306 305
300 299 299 299 300 300 300 299 301 302 305 305 305 308 305 307 306 306 309 309 309 310 313 314 314 313 312 316 317 315 315 315 314 312 310 312 312 311 310 309 308 307 306 306 304
299 299 299 299 300 300 300 300 301 304 302 304 304 306 306 306 306 307 308 309 310 312 314 313 315 313 311 310 310 310 308 308 313 312 311 313 310 312 310 310 308 306 305 305 304
300 299 299 299 299 299 299 301 304 304 303 302 304 305 306 306 308 308 308 311 311 313 311 314 312 311 310 311 312 309 312 312 310 312 311 307 308 313 311 311 309 307 305 305 307
300 299 299 299 299 299 300 301 300 301 306 303 304 305 305 307 307 307 309 310 311 312 312 313 312 310 312 312 312 313 313 311 311 312 313 311 312 309 313 312 310 307 306 304 304
300 300 299 299 299 300 300 300 300 300 315 305 303 304 305 306 308 306 306 309 310 312 311 311 310 311 312 312 310 312 310 309 311 312 312 310 311 314 313 313 311 308 305 304 304
301 300 300 298 304 299 301 298 299 301 317 304 303 304 304 307 307 307 305 309 310 310 310 310 310 310 311 309 308 311 309 310 311 313 312 310 311 315 314 314 311 307 305 303 302
304 300 301 298 301 301 300 298 300 312 313 302 304 306 306 306 306 307 307 306 308 309 309 308 307 308 308 308 307 308 309 313 313 312 312 308 311 314 314 313 312 307 305 303 303
305 301 301 298 299 299 298 299 308 313 303 303 305 306 307 306 307 309 309 309 312 309 310 308 309 307 306 308 308 309 310 315 313 312 311 307 309 313 312 312 309 305 305 303 302
305 304 301 298 300 298 298 305 308 310 306 301 305 305 306 306 306 308 308 308 307 308 309 312 314 308 306 308 308 310 309 310 312 311 308 307 309 311 310 311 308 305 304 303 302
304 304 301 297 298 297 303 307 310 309 304 304 304 307 305 304 305 307 310 309 307 307 314 310 308 306 307 307 308 310 309 307 310 302 308 308 308 307 308 308 309 306 304 303 302
305 303 299 297 297 298 302 307 304 300 303 304 309 307 306 305 305 307 307 307 306 306 306 306 310 306 307 306 307 309 307 310 309 306 308 307 307 305 307 308 308 306 304 303 302
305 299 298 297 296 300 303 304 300 298 301 304 307 300 308 303 306 308 307 304 306 305 306 307 308 307 306 308 307 308 309 307 306 307 309 307 306 307 309 307 308 307 305 303 302
302 301 297 296 301 298 302 300 298 298 300 301 302 304 305 303 306 307 305 305 305 305 307 306 308 309 307 305 305 307 308 308 307 308 305 307 303 307 308 308 311 308 306 304 302
299 298 296 297 301 301 295 296 296 298 300 301 301 303 303 304 302 305 304 301 302 305 306 306 305 307 310 308 305 306 307 308 306 305 307 308 308 306 306 307 310 308 305 304 303
299 300 297 296 300 302 299 299 296 297 301 301 301 301 302 300 298 301 303 301 300 304 303 304 305 308 311 309 306 307 307 306 306 306 309 305 306 304 304 305 307 309 306 304 303
301 301 297 296 297 302 302 299 298 296 298 300 300 302 302 299 301 300 301 300 300 303 303 302 300 299 302 303 303 303 303 305 306 306 305 307 305 305 305 304 307 307 306 304 302
303 300 298 299 298 302 303 299 300 300 298 298 300 301 303 300 304 300 302 301 301 302 302 301 299 295 296 298 299 300 299 301 302 304 306 306 305 305 306 306 307 307 307 304 303
304 306 305 302 300 301 302 302 302 300 300 301 301 301 301 301 301 301 301 302 301 301 297 298 293 297 304 295 295 301 299 297 299 301 302 303 304 305 305 305 306 307 307 305 304

GFSSW_850_thetae_279.txt.gz
Theta_e
301 301 301 301 301 300 300 301 300 301 301 301 302 306 306 310 311 310 310 310 310 310 310 310 310 311 309 309 310 311 305 305 306 307 306 308 306 308 309 309 309 310 310 310 310
301 301 301 301 300 300 300 300 300 301 301 301 304 307 306 307 310 310 310 310 310 310 310 310 310 309 309 309 309 307 303 306 308 307 306 308 308 308 308 309 310 310 310 309 310
301 301 300 300 300 300 300 300 300 300 301 301 305 306 307 308 311 310 310 310 310 310 310 310 310 310 309 308 308 309 306 308 309 310 308 308 308 310 310 309 309 309 309 308 307
300 300 300 300 300 300 300 300 300 300 301 301 305 307 308 311 315 309 310 310 310 310 311 311 310 309 306 306 308 308 309 310 309 310 309 308 309 309 310 310 310 309 308 306 306
300 300 300 300 300 300 300 300 300 300 301 302 305 306 310 310 308 309 310 310 310 310 310 311 309 308 306 308 308 307 309 309 309 310 309 309 310 309 311 311 310 309 307 307 307
300 300 300 300 300 300 300 300 301 301 301 303 306 306 310 311 308 309 310 309 309 309 309 309 308 308 309 308 307 308 309 309 309 311 310 310 310 311 311 311 309 309 307 306 306
300 300 300 300 300 300 300 300 301 301 301 306 306 308 309 309 307 308 309 309 310 309 309 308 310 310 310 309 308 308 309 307 310 311 311 310 311 310 310 310 308 308 308 306 305
300 300 300 300 300 300 300 301 301 301 302 305 306 307 306 306 307 308 308 309 309 309 308 309 309 309 309 308 308 309 309 311 310 310 311 311 312 310 310 309 307 308 308 306 307
300 300 300 299 299 300 301 301 301 301 303 304 305 309 307 306 307 308 308 309 309 310 310 311 312 311 311 312 309 307 309 307 312 310 309 310 310 310 310 309 307 307 307 307 307
300 300 299 299 299 301 300 300 301 303 304 305 305 307 305 307 306 307 309 308 308 311 311 313 313 307 305 307 308 308 307 309 312 311 309 310 309 307 310 310 307 306 307 307 309
300 299 299 299 299 300 300 301 302 304 302 305 305 306 306 306 307 307 309 309 312 311 310 312 307 305 307 307 307 303 304 308 307 310 310 309 307 307 310 310 307 305 305 306 308
300 299 299 299 300 300 300 302 305 304 302 303 304 305 306 306 308 307 309 311 311 309 310 307 307 308 309 309 309 304 309 303 306 309 309 305 307 310 311 310 307 305 304 305 307
300 299 299 299 299 300 300 301 301 301 305 303 304 305 305 307 307 307 310 310 310 310 310 309 310 310 311 311 310 311 311 308 308 309 311 310 308 308 311 311 307 304 303 304 305
300 300 299 299 299 300 301 301 300 301 303 304 302 304 305 307 307 305 307 309 309 309 308 309 309 310 311 311 308 310 308 308 309 309 308 308 306 310 313 310 306 304 303 302 303
301 300 300 298 303 301 302 299 299 302 309 304 303 304 305 307 307 306 306 309 309 308 309 309 309 310 310 308 307 310 308 308 310 311 311 307 308 309 312 311 306 304 303 302 302
301 301 301 298 302 302 299 298 300 303 307 300 303 305 305 305 306 306 306 307 308 308 306 307 307 307 306 306 306 307 308 309 311 308 307 306 308 308 311 312 309 304 303 302 302
304 304 302 298 301 301 298 299 302 302 301 298 302 305 305 305 306 307 307 306 302 301 302 307 308 306 306 307 307 307 308 309 308 306 308 305 307 307 311 310 307 303 303 302 302
307 306 303 299 300 299 298 302 298 299 297 300 303 304 303 304 305 307 306 302 306 306 300 306 308 307 305 306 307 307 307 305 306 309 304 305 307 305 310 310 306 304 304 302 301
307 306 303 299 299 298 303 300 302 299 302 301 303 302 302 303 303 306 304 304 305 306 306 303 305 305 306 306 306 308 305 306 307 297 306 306 306 306 308 308 307 304 304 303 301
307 305 303 298 297 298 302 302 298 303 301 302 301 300 295 298 302 303 305 304 305 305 305 306 305 305 306 306 306 308 306 308 305 300 304 305 305 302 306 306 306 305 304 303 301
307 304 301 297 297 301 300 295 296 298 301 302 303 297 302 300 298 303 302 303 304 304 305 304 305 304 305 306 306 307 308 305 304 305 308 306 304 302 305 304 306 306 305 304 302
305 299 297 296 299 299 295 295 298 297 300 299 301 301 301 301 304 301 304 303 304 304 305 305 305 303 307 304 304 306 307 306 305 308 303 305 302 305 305 304 308 308 306 305 303
302 297 296 297 299 291 292 291 296 297 298 299 299 301 302 301 300 303 301 300 302 304 304 303 300 298 306 305 304 304 305 306 304 302 305 305 304 304 305 306 309 308 306 305 303
303 297 296 296 299 295 291 292 293 297 299 300 300 301 299 299 296 300 300 300 301 303 303 304 303 304 309 308 306 306 306 305 303 303 304 304 303 303 302 303 306 307 306 305 304
305 300 296 295 296 298 297 295 294 294 297 300 299 299 299 297 299 298 298 299 300 303 302 298 295 296 300 301 302 302 303 304 305 303 303 305 303 303 302 301 305 308 306 305 304
303 298 296 295 297 299 299 294 297 296 296 296 298 298 300 298 301 300 299 298 299 301 301 299 295 291 293 297 299 301 299 300 302 303 303 304 304 303 305 304 304 306 307 305 305
306 305 301 298 297 299 299 297 297 297 298 299 298 300 299 300 300 300 300 300 299 299 294 295 291 292 299 292 293 301 297 297 299 299 302 303 303 303 303 305 305 304 306 307 306

GFSSW_850_thetae_282.txt.gz
Theta_e
301 301 301 301 301 301 301 301 301 301 302 302 304 306 307 310 310 310 310 310 310 310 310 310 310 309 309 310 309 311 303 303 306 307 307 307 306 309 308 309 310 311 310 310 310
301 301 301 301 301 301 301 301 301 301 301 302 305 307 306 308 310 310 310 310 310 310 310 309 309 308 308 308 308 305 302 307 307 306 306 307 308 308 308 309 310 310 310 309 308
301 301 301 301 300 300 301 301 301 301 301 302 306 307 307 309 310 310 310 310 310 310 310 310 310 309 307 308 308 307 306 307 309 310 308 308 308 309 309 309 310 309 309 308 308
300 300 300 300 300 300 300 301 301 301 301 302 305 307 309 310 314 310 310 310 309 310 310 308 310 307 306 306 307 308 309 309 309 309 309 308 309 309 310 310 310 309 309 308 307
300 300 300 300 300 300 300 301 301 301 301 302 305 306 309 309 309 309 310 309 309 309 310 309 308 308 306 307 307 307 308 309 309 309 309 309 310 309 310 310 309 309 309 307 306
300 300 300 300 300 300 300 301 301 301 301 304 305 306 310 310 308 309 309 309 309 309 308 309 308 309 308 307 306 308 308 308 310 310 310 310 310 310 310 310 308 309 309 308 306
300 300 300 300 300 300 300 301 302 301 302 306 306 309 309 308 308 308 309 309 309 309 308 309 310 310 309 307 308 308 308 307 309 310 310 310 311 310 310 309 307 308 308 308 307
300 300 300 300 300 300 301 303 302 301 302 305 306 306 306 306 307 308 308 309 309 309 308 309 310 310 308 308 308 309 307 310 310 309 310 310 309 309 310 309 307 307 307 308 307
300 300 300 300 299 300 302 302 302 302 303 304 305 308 306 306 306 308 308 309 309 310 311 312 312 311 310 310 307 304 308 306 311 309 309 309 309 309 310 309 306 305 307 308 308
300 300 300 299 299 300 301 301 302 303 304 305 305 306 305 307 306 308 308 308 308 310 312 313 311 304 303 305 300 305 306 307 309 310 308 310 309 306 309 308 305 305 306 309 308
300 300 300 299 299 300 301 302 303 303 303 305 305 307 306 306 307 308 308 311 311 311 310 310 305 303 307 307 305 302 300 303 306 308 309 309 307 307 310 307 304 304 304 307 308
300 300 299 299 299 300 300 302 305 305 303 303 304 305 305 307 308 307 310 311 310 307 309 304 306 307 307 307 306 303 305 301 304 307 308 302 307 308 310 308 304 303 303 306 310
302 300 299 299 299 300 300 301 302 301 304 303 304 305 305 307 307 307 310 310 309 309 309 307 308 309 310 310 308 310 310 307 306 307 309 308 306 307 310 308 304 303 302 303 306
305 300 299 299 299 300 300 301 301 302 301 303 302 304 305 307 306 306 309 309 308 308 307 308 308 310 310 310 307 309 308 307 308 308 306 306 303 304 311 309 304 302 302 302 303
306 301 300 299 300 300 302 302 300 302 311 303 302 304 305 306 306 305 307 309 308 307 307 308 308 309 310 308 306 308 307 307 309 310 309 305 307 306 311 311 305 302 302 302 303
308 303 301 298 302 301 301 300 301 306 310 301 302 304 305 305 306 305 306 308 307 305 305 306 306 306 306 306 306 306 308 309 308 306 303 305 306 304 309 311 307 303 301 301 301
309 304 302 298 301 301 298 300 306 306 300 299 301 304 304 304 306 306 306 304 302 299 300 305 307 305 305 307 306 306 306 308 304 303 305 304 305 303 309 310 305 302 302 301 300
308 305 303 299 300 299 298 304 303 299 297 300 302 303 304 303 305 306 304 301 305 303 298 303 303 306 305 306 306 307 305 303 304 306 302 302 305 303 309 309 305 303 302 301 300
307 307 304 300 299 298 303 303 308 299 301 301 302 301 301 303 303 305 303 303 302 304 304 303 304 304 305 305 306 307 303 304 306 297 304 305 302 303 307 307 304 303 302 301 300
307 307 304 300 300 298 303 305 296 301 300 301 302 299 296 298 302 303 303 304 304 304 304 304 304 304 305 305 306 307 305 307 304 300 302 304 303 302 304 305 305 304 303 302 300
307 306 304 299 298 302 301 297 295 301 301 301 300 297 300 299 298 301 302 303 303 304 304 303 302 302 304 305 305 306 306 304 303 304 306 305 304 299 305 304 303 306 306 303 301
306 301 301 297 299 300 292 294 298 297 300 299 299 301 299 300 300 300 302 302 303 304 304 305 303 301 306 304 304 305 306 304 304 306 302 305 303 302 305 304 304 307 308 305 303
305 297 297 298 295 291 292 291 296 297 298 298 299 301 300 301 301 302 300 300 302 303 303 302 299 297 301 303 302 303 304 305 302 300 304 303 304 302 303 305 307 307 308 306 303
302 297 297 297 297 295 292 293 294 296 298 299 299 300 299 300 295 299 300 299 301 303 304 303 301 303 307 306 303 304 305 304 303 300 302 303 303 302 302 302 304 308 309 307 305
303 298 296 294 296 295 297 295 295 295 297 299 299 299 299 297 299 296 298 299 300 303 302 298 296 297 302 301 301 302 304 304 303 302 305 305 303 302 302 300 303 305 308 306 305
302 298 295 295 298 299 298 294 297 296 297 298 298 298 298 299 302 299 299 298 300 300 300 298 293 290 293 296 297 301 300 301 302 303 302 302 303 302 303 303 303 304 304 306 306
306 304 302 297 297 299 298 296 297 297 297 299 298 298 299 299 300 299 299 299 298 299 295 294 290 293 299 290 294 303 298 299 299 299 302 304 303 303 303 304 304 304 304 304 306

GFSSW_850_thetae_285.txt.gz
Theta_e
302 302 301 301 301 301 301 301 301 301 302 302 305 306 307 310 310 310 310 310 310 309 310 309 309 309 310 309 309 310 303 303 305 305 305 306 306 308 307 309 311 311 310 310 310
301 301 301 301 301 301 300 301 301 301 301 303 306 307 306 308 310 310 310 310 310 309 309 309 308 308 308 308 308 304 301 306 306 306 306 306 307 308 309 308 310 310 310 310 309
301 301 301 301 301 301 300 300 301 301 301 303 306 307 307 309 310 310 310 309 309 310 310 310 309 307 308 308 308 307 306 306 308 309 307 307 308 309 309 309 310 308 309 310 309
301 301 301 301 301 301 300 300 300 301 301 303 305 307 309 310 314 310 309 309 309 310 309 308 309 308 306 306 307 307 308 308 309 309 308 308 308 308 310 310 309 308 310 309 309
301 301 301 300 300 301 301 300 301 301 302 303 305 306 308 308 309 309 309 309 309 310 309 308 309 308 306 306 307 307 308 309 308 309 308 309 309 309 310 310 308 309 311 310 308
301 301 300 300 300 300 301 300 301 301 302 304 305 306 309 309 308 309 309 309 309 308 308 308 309 309 308 306 306 307 308 308 310 310 309 309 310 310 310 309 307 310 310 310 308
301 301 300 300 300 300 301 301 301 301 303 306 307 308 310 307 308 309 309 309 308 308 309 309 310 310 308 307 307 308 307 307 308 309 309 310 310 309 309 309 306 308 309 309 308
301 300 300 300 300 300 300 302 302 302 302 305 306 306 306 307 308 308 309 309 309 308 309 310 310 309 308 308 308 308 305 309 309 308 309 308 309 309 309 307 305 307 309 310 310
301 301 300 300 300 300 300 303 302 302 303 304 305 307 306 306 307 308 308 309 309 310 311 312 311 310 311 307 304 301 307 305 309 308 308 308 308 307 309 307 304 305 307 308 310
302 300 300 300 299 299 301 302 302 303 304 304 305 306 305 306 307 308 308 308 309 311 312 313 307 302 302 304 299 303 303 306 307 307 308 308 308 306 309 306 303 303 306 309 308
302 300 300 299 299 299 301 302 303 303 303 305 305 307 306 306 307 308 309 311 311 311 310 307 303 302 306 306 303 299 300 303 305 308 308 307 307 307 309 306 303 302 304 307 307
305 301 300 299 299 299 300 302 304 306 303 303 304 305 306 307 307 308 310 310 309 307 307 303 305 306 306 306 305 304 304 300 302 305 307 301 307 307 309 306 303 302 302 304 308
309 302 300 299 298 299 300 301 304 303 304 303 304 305 305 307 307 307 310 310 308 309 308 305 307 307 310 309 307 309 308 306 305 305 307 307 304 304 310 307 304 302 302 303 306
310 304 301 300 298 299 300 301 302 302 302 303 302 304 305 307 305 306 309 309 308 307 306 307 308 309 309 309 306 309 307 307 308 308 304 304 302 302 309 309 303 302 301 302 304
309 306 301 300 298 298 300 301 302 304 313 303 302 303 305 306 305 305 308 308 307 307 304 307 308 308 309 307 305 308 306 308 309 309 307 303 305 305 309 310 306 302 301 301 301
312 306 303 301 299 299 301 301 301 308 313 301 302 304 304 305 306 305 306 308 307 303 304 305 306 305 306 305 305 305 307 307 305 304 301 304 304 301 306 309 307 302 301 301 301
310 305 302 302 300 300 299 300 309 314 301 299 301 303 303 304 305 305 305 304 302 300 300 305 306 305 304 306 306 305 306 306 304 302 304 303 304 300 306 308 305 302 301 300 300
310 303 306 302 301 300 299 304 315 302 298 299 302 302 303 303 304 305 303 302 304 301 297 301 302 305 304 305 306 306 304 303 304 305 301 302 304 302 307 308 305 303 301 300 299
308 309 306 303 299 298 302 313 312 302 300 301 302 302 301 303 303 305 302 300 302 302 303 303 305 303 304 305 305 306 303 303 304 294 303 304 302 300 307 305 302 302 301 300 299
308 307 305 303 299 297 301 307 302 300 300 301 303 300 298 299 302 303 302 302 303 302 303 304 303 303 305 305 304 306 303 305 302 300 302 303 303 302 303 304 304 301 302 301 299
309 307 305 304 300 300 297 300 296 301 301 301 300 297 300 299 298 301 302 303 302 303 303 303 302 301 303 304 303 305 305 303 303 302 305 305 305 298 302 303 302 305 306 303 300
307 303 303 303 298 295 293 295 298 298 299 299 299 300 300 298 299 299 301 301 303 303 304 302 301 299 303 303 303 304 305 302 303 306 301 303 303 300 302 304 303 304 308 306 302
305 297 299 298 295 290 290 292 296 297 298 299 299 301 299 301 301 302 300 299 302 302 302 303 299 297 301 302 301 303 303 303 301 300 303 303 305 300 302 303 305 305 308 307 303
302 297 297 297 296 294 291 293 295 296 298 298 299 299 299 300 295 299 300 299 302 303 304 303 300 304 307 306 301 301 303 303 302 300 302 302 302 302 302 301 303 307 307 307 305
303 298 297 297 295 294 297 295 297 295 297 298 299 299 300 298 299 296 298 299 300 303 301 298 298 297 300 300 302 303 303 302 302 301 305 305 302 302 301 301 302 304 305 307 306
301 297 295 296 297 297 299 295 300 297 297 298 299 299 298 300 302 300 299 298 301 300 300 298 294 290 293 295 297 301 300 302 302 303 300 301 302 302 304 302 302 303 303 304 307
305 303 302 297 298 298 299 299 298 298 297 299 299 299 298 299 300 299 299 299 299 299 295 294 290 294 299 288 293 302 298 299 301 300 302 304 303 302 302 302 303 304 304 304 304

GFSSW_850_thetae_291.txt.gz
Theta_e
302 302 302 301 301 301 301 301 301 302 302 303 306 306 307 310 309 310 309 309 309 309 309 308 309 309 310 310 309 307 304 303 304 303 304 305 306 307 308 307 309 310 309 311 311
302 302 301 301 301 301 301 301 302 302 302 303 306 306 306 308 309 309 309 309 309 309 309 308 309 309 309 308 308 303 303 304 304 304 304 306 307 307 309 308 310 308 310 311 311
302 302 301 301 301 301 301 301 301 302 302 303 306 307 307 309 310 309 309 308 309 309 309 308 308 309 307 307 307 305 305 305 307 306 306 306 307 309 308 308 309 308 308 312 311
302 302 301 301 301 301 301 301 301 302 303 303 305 307 308 310 312 309 309 308 308 309 308 308 307 308 305 305 306 306 306 307 308 308 307 307 307 308 309 309 309 306 309 311 311
302 301 301 301 301 300 301 301 301 302 303 304 305 306 307 309 309 309 309 308 308 309 308 309 309 307 304 306 307 306 306 307 308 308 308 309 308 308 309 309 306 307 311 312 311
306 302 301 301 301 300 300 301 301 302 303 305 306 306 309 308 309 309 309 308 308 308 308 308 309 308 306 305 305 307 307 308 309 308 308 308 309 308 308 309 305 309 312 313 313
308 304 301 301 300 300 300 300 301 303 303 306 307 307 309 308 308 309 308 308 308 309 310 309 309 309 308 306 307 306 307 307 307 308 308 308 308 308 307 308 304 307 311 312 313
311 308 302 300 300 300 300 300 301 303 304 305 306 306 306 307 308 308 309 308 309 310 310 309 309 309 307 307 307 305 304 309 307 307 308 306 308 307 309 307 304 305 307 311 313
312 310 306 301 300 300 300 300 302 303 304 304 305 306 306 306 307 308 308 309 309 311 311 311 311 309 308 304 302 300 305 304 307 307 307 306 308 307 309 308 304 303 305 307 311
312 311 309 303 300 300 299 300 302 303 304 304 305 306 306 306 307 308 308 309 311 311 311 308 306 302 301 302 302 301 303 305 305 306 306 307 308 305 309 309 304 302 303 304 308
313 312 310 305 300 300 299 300 303 304 304 306 306 306 306 306 307 308 308 309 310 310 307 304 302 302 305 303 299 298 301 301 304 306 306 307 305 306 308 308 304 302 302 303 305
315 312 311 305 300 299 299 302 303 304 304 304 305 306 306 307 307 308 309 309 308 307 304 303 304 304 302 304 305 303 303 301 302 302 305 300 305 305 306 308 305 302 302 302 302
320 314 312 304 300 299 299 301 303 305 304 303 304 305 305 307 306 307 310 308 307 307 303 302 305 304 307 306 307 306 305 304 303 304 305 302 304 304 306 308 308 305 302 301 301
319 318 314 306 301 300 299 300 302 304 305 306 302 304 304 307 305 307 309 308 306 304 304 305 305 307 307 305 305 308 305 305 308 305 304 300 303 301 304 305 306 308 302 301 300
319 316 311 304 300 300 299 300 302 307 319 304 301 303 305 304 304 306 308 308 305 305 302 305 306 307 308 306 304 308 305 307 308 307 303 301 301 302 303 306 306 305 302 300 300
319 316 311 307 299 299 299 300 303 312 314 301 301 303 303 304 305 306 307 307 305 303 302 304 305 304 304 303 303 303 305 304 301 302 303 303 300 300 303 305 307 304 302 301 299
319 317 315 310 303 299 300 302 309 311 302 300 301 302 303 303 304 304 305 304 302 303 301 303 304 303 303 304 304 305 305 304 305 303 304 301 302 301 299 303 306 303 302 301 300
317 316 312 308 303 300 301 304 307 301 300 299 302 301 304 303 303 303 304 303 302 300 298 302 303 303 303 304 305 303 302 304 305 304 302 301 302 303 298 305 308 306 303 302 301
316 312 309 309 300 301 306 303 305 300 302 302 302 302 302 302 303 303 302 302 302 299 303 302 304 302 303 303 303 305 302 300 302 292 301 302 301 300 305 305 305 305 303 303 301
311 309 308 306 300 300 302 306 299 302 300 301 306 302 301 302 304 302 301 301 302 300 301 301 304 302 303 303 303 303 300 305 301 301 303 303 302 304 302 303 303 303 304 304 302
310 306 305 303 299 303 303 299 297 300 302 302 302 298 301 302 301 302 301 302 300 300 301 299 302 301 302 302 303 304 303 300 301 301 305 306 305 298 299 300 302 305 307 307 304
307 302 301 301 299 298 299 292 299 300 300 299 300 300 301 299 301 300 302 300 302 301 303 300 301 301 302 301 301 302 301 301 304 305 299 302 305 299 297 300 301 303 306 308 307
304 298 299 300 303 298 291 290 296 298 299 300 300 300 299 300 301 302 300 299 301 301 302 301 298 297 300 301 299 302 302 300 299 300 302 305 306 298 298 300 303 304 305 306 308
302 298 298 298 299 298 293 297 296 297 299 299 299 299 300 299 296 299 300 299 301 301 303 302 300 303 305 305 301 302 301 300 302 302 302 302 305 302 299 299 301 303 305 306 309
302 298 298 299 300 298 299 297 300 297 297 299 299 301 301 301 300 298 298 300 301 303 301 299 298 297 298 297 300 301 301 301 301 302 307 306 301 302 300 298 301 304 305 306 308
300 299 298 299 301 297 299 299 300 299 298 299 300 300 300 302 303 302 300 301 303 300 300 297 294 291 293 293 296 302 301 301 301 302 299 300 301 299 303 303 302 303 302 304 307
305 304 303 301 300 298 299 300 299 300 298 300 300 300 301 301 299 298 299 300 301 301 297 294 290 295 298 287 293 301 299 301 301 300 299 303 303 300 301 299 301 303 303 304 305

GFSSW_850_thetae_294.txt.gz
Theta_e
302 302 302 301 301 301 301 301 302 302 302 303 306 306 307 310 309 309 309 309 309 309 309 309 309 309 310 310 308 308 314 313 310 310 310 307 309 309 308 309 310 311 310 311 310
302 302 302 301 301 301 301 301 301 302 302 303 306 306 307 309 310 309 309 308 309 309 309 308 309 309 310 309 309 311 313 310 308 308 309 308 310 310 311 311 312 310 310 310 311
302 302 302 301 301 301 301 301 301 302 302 303 306 307 307 309 310 309 309 308 309 309 309 307 309 309 310 309 309 309 312 309 308 307 308 310 310 310 311 313 311 309 308 311 312
302 302 302 301 301 301 301 301 301 301 303 303 305 307 308 309 315 309 309 308 308 309 308 308 308 310 311 311 308 310 308 309 310 309 309 310 309 311 311 311 310 307 308 311 312
306 303 302 301 301 301 300 300 301 301 303 304 305 306 307 309 309 309 308 308 308 309 308 308 308 309 312 309 310 311 309 309 309 308 309 309 311 311 311 309 308 305 310 311 311
308 307 302 301 301 301 300 300 300 302 303 306 306 306 309 310 309 309 308 308 308 308 308 309 309 308 308 308 311 309 310 310 309 309 309 310 311 310 310 309 306 305 309 309 310
311 308 305 302 301 301 300 300 300 302 303 306 307 307 309 308 308 309 308 308 309 309 308 308 308 309 309 309 308 309 311 310 310 310 310 309 311 312 309 309 306 305 307 308 309
313 311 307 303 301 300 300 300 300 302 303 305 306 306 307 308 308 309 308 309 309 310 310 309 309 308 309 308 309 311 311 314 310 310 309 309 313 310 309 309 306 305 305 306 309
318 313 310 306 301 300 300 300 300 302 303 304 305 306 307 307 308 308 309 309 310 311 311 311 310 309 309 314 314 311 314 313 311 309 310 311 314 310 309 309 306 305 305 305 307
319 319 311 309 302 300 299 299 300 302 304 304 305 307 306 306 307 308 309 310 311 310 309 307 308 313 311 314 317 312 311 308 309 310 310 312 314 311 309 310 307 305 304 304 304
317 315 312 310 305 300 299 299 301 303 304 306 306 307 306 306 307 308 308 310 311 310 312 305 311 314 312 307 304 307 311 314 308 309 309 312 312 312 310 311 310 306 304 304 302
318 317 315 309 307 300 299 300 303 305 305 304 306 306 306 307 307 308 308 309 310 312 306 309 311 307 306 307 308 309 312 312 308 305 309 309 309 309 309 311 310 307 304 302 301
318 317 319 311 306 300 299 299 303 306 306 303 304 305 306 306 306 308 309 308 310 310 307 310 309 306 309 309 310 309 310 308 310 308 309 308 313 311 310 310 309 308 303 301 300
318 318 317 318 312 302 299 299 303 305 318 310 304 304 305 307 307 307 309 308 308 309 309 310 307 309 308 308 308 311 308 308 310 310 313 306 320 311 309 310 309 309 303 302 300
317 319 316 317 315 317 305 299 302 308 329 308 302 303 305 305 306 307 307 308 309 307 307 309 309 310 309 307 306 310 308 310 310 312 310 307 309 312 307 310 311 308 304 301 300
318 316 316 315 313 312 310 299 304 319 320 305 302 305 305 304 305 306 306 306 305 307 307 308 305 307 307 305 306 307 310 309 307 309 317 307 307 310 309 310 310 307 304 301 300
318 319 317 316 314 300 299 301 312 319 305 306 304 305 305 306 306 307 308 308 312 314 313 307 307 304 304 308 306 307 312 315 320 320 318 305 307 310 306 307 311 307 304 302 300
317 318 317 315 312 300 300 307 311 311 310 301 303 304 306 305 306 306 308 310 306 307 309 311 310 306 304 306 309 309 309 316 320 314 310 303 308 310 305 305 307 307 303 302 301
316 317 316 312 305 301 302 306 311 309 307 304 304 306 306 304 306 306 309 310 309 305 314 308 308 304 304 305 306 307 307 304 307 300 311 310 309 307 306 308 308 308 305 303 302
314 309 309 310 304 301 302 306 306 304 302 304 312 307 309 306 307 307 307 308 307 304 303 306 309 303 304 304 305 306 304 309 309 318 317 310 308 313 306 307 309 309 308 305 303
313 307 306 305 299 302 306 308 301 302 303 305 308 305 306 307 308 307 308 305 303 303 303 305 309 304 304 306 308 306 307 305 306 306 313 312 314 309 308 308 308 309 309 308 304
309 303 301 301 300 300 305 301 300 300 300 301 303 303 305 304 306 308 307 304 302 303 306 304 307 308 306 302 302 303 306 307 313 309 305 307 313 304 304 304 306 308 308 308 306
305 297 299 299 301 302 296 299 299 300 301 302 303 302 301 303 306 306 305 300 301 304 306 304 309 309 309 305 302 305 305 304 304 305 307 315 314 302 301 303 304 305 304 307 308
302 299 296 297 299 303 300 302 302 298 301 301 301 301 301 301 299 304 303 301 301 302 303 303 305 314 315 312 307 306 305 305 307 314 309 309 312 306 304 305 305 304 305 305 307
300 300 299 299 300 303 302 301 302 301 298 300 300 303 303 303 302 303 301 301 302 303 301 304 310 303 301 301 303 305 306 305 305 308 314 312 309 311 308 306 306 305 305 306 306
300 299 298 300 302 302 302 301 302 301 301 301 303 302 302 305 306 305 302 303 306 302 303 299 305 298 299 297 299 303 304 306 305 305 305 304 307 307 305 303 304 303 304 305 306
300 302 301 301 303 302 304 305 302 303 299 303 302 302 303 302 300 299 300 301 303 304 303 302 299 308 315 294 300 311 305 305 306 305 307 307 310 304 303 303 304 304 304 305 305